This is the latest recevied weather packets stored in our database for station/object NN5DX-12. If no packets are shown the sender has not sent any weather packets the latest 10 day(s).
| Time | Temp. | Humidity | Pressure | Rain* | Wind** | Luminosity | Snow |
|---|---|---|---|---|---|---|---|
| 1777485317 | 5.56° C | 63% | 1020.7 hPa | 0 mm | - | - | - |
| 1777485016 | 5.56° C | 63% | 1020.6 hPa | 0 mm | - | - | - |
| 1777484716 | 6.11° C | 60% | 1021.2 hPa | 0 mm | - | - | - |
| 1777484416 | 6.11° C | 60% | 1021.1 hPa | 0 mm | - | - | - |
| 1777484117 | 6.11° C | 59% | 1021.2 hPa | 0 mm | - | - | - |
| 1777483816 | 6.11° C | 54% | 1021.1 hPa | 0 mm | - | - | - |
| 1777483517 | 6.11° C | 56% | 1021.2 hPa | 0 mm | - | - | - |
| 1777483216 | 6.67° C | 56% | 1021.1 hPa | 0 mm | - | - | - |
| 1777482916 | 6.67° C | 52% | 1021.6 hPa | 0 mm | - | - | - |
| 1777482616 | 6.67° C | 54% | 1021.7 hPa | 0 mm | - | - | - |
| 1777482316 | 6.67° C | 53% | 1021.7 hPa | 0 mm | - | - | - |
| 1777482016 | 6.67° C | 57% | 1021.8 hPa | 0 mm | - | - | - |
| 1777481717 | 6.67° C | 54% | 1021.8 hPa | 0 mm | - | - | - |
| 1777481417 | 6.67° C | 54% | 1021.9 hPa | 0 mm | - | - | - |
| 1777481116 | 6.67° C | 52% | 1021.4 hPa | 0 mm | - | - | - |
| 1777480816 | 6.67° C | 52% | 1021.2 hPa | 0 mm | - | - | - |
| 1777480517 | 6.67° C | 53% | 1021.1 hPa | 0 mm | - | - | - |
| 1777480217 | 6.67° C | 50% | 1021.2 hPa | 0 mm | - | - | - |
| 1777479916 | 6.67° C | 50% | 1021.1 hPa | 0 mm | - | - | - |
| 1777479617 | 7.22° C | 51% | 1021.8 hPa | 0 mm | - | - | - |
| 1777479316 | 6.67° C | 53% | 1021.2 hPa | 0 mm | - | - | - |
| 1777479016 | 7.22° C | 53% | 1021.2 hPa | 0 mm | - | - | - |
| 1777478716 | 6.67° C | 53% | 1021.3 hPa | 0 mm | - | - | - |
| 1777478416 | 6.67° C | 55% | 1021.4 hPa | 0 mm | - | - | - |
| 1777478116 | 6.11° C | 56% | 1021.4 hPa | 0 mm | - | - | - |
* Rain latest hour (hover to see other rain measurements)
** Current wind speed in m/s (hover to see current wind gust speed)